Find Starlink 5053

NORAD ID: 53913 Int'l Des: 2022-119 Owner: SPXS Country: US Constellation: starlink operational
LEOCIRCULAR

当前视图

正在加载3D地球...

About Starlink 5053

Starlink 5053 (NORAD 53913) is a starlink constellation satellite (v1.5) launched Sep 24, 2022 by SPXS of US. It operates in LEO, CIRCULAR orbit with a mass of 305.00 kg.

关于 Starlink 5053

正在加载描述...

即将过境

Passes for default location (London). Set your location on the main map for personalized predictions.

高度历史

Loading altitude history...

两行轨道根数

1 53913U 22119AD 26175.19421796 .00000409 00000-0 43792-4 0 9998
2 53913 53.1585 195.8471 0001078 80.9105 279.2008 15.08835987207904
Epoch: Jun 24, 2026 • Age: 11 hours

当前状态

高度 540.7 km
速度 7.60 km/s
星下点 28.68°N, 65.7°E
发射日期 Sep 24, 2022
运行时间 3.7 years
类型 internet

技术详情

分类 Payload
质量 305.00 kg
干质量 290.00 kg
总质量 305.00 kg
长度 0.20 m
直径 2.80 m
跨度 9.00 m
形状 Box + pan
制造商 SPXS
平台类型 Starlink
阶段状态 In Orbit
所有者/国家 SPXS/US

Most Searched